COSMOS 2475 (743)

Last updated on Sat Apr 13 2024 01:03:06 GMT+0100 (British Summer Time)

1 37869U 11064C 24103.40176361 .00000026 00000+0 00000+0 0 9999 2 37869 64.8739 99.9100 0026841 256.6892 105.9679 2.13101809 96815
UTC large
Height (km)
Speed (km/s)
/
Latitude / Longitude
Inclination (degrees)
Orbital Period (minutes)
Azimuth
Elevation
Range (km)
Doppler Factor

Next 0 passes for location: London (51.5072 / 0.1276)

Sorry there are no passes over London.